Location: Cluj-Napoca
(46.7712°N, 23.6236°E)
Time: 04:18:51
(UTC+03:00)

ISS - Pass Details

Date: 04 July 2020
Orbit: 417 x 421 km, 51.6° (Epoch: 08 July)

Event Time Altitude Azimuth Distance (km) Brightness Sun altitude
Exits shadow 02:49:57 24° 126° (SE) 908 -2.2 -18.1°
Drops below altitude 10° 02:52:18 10° 83° (E) 1,496 -0.6 -17.9°
Sets 02:54:37 0° 70° (ENE) 2,363 0.7 -17.8°
